This is the latest recevied weather packets stored in our database for station/object LU8AQL-WX. If no packets are shown the sender has not sent any weather packets the latest 10 day(s).
| Time | Temp. | Humidity | Pressure | Rain* | Wind** | Luminosity | Snow |
|---|---|---|---|---|---|---|---|
| 1777580439 | 20° C | 56% | 1012 hPa | 0 mm | - | - | - |
| 1777579838 | 20° C | 56% | 1012 hPa | 0 mm | - | - | - |
| 1777579237 | 20° C | 58% | 1012 hPa | 0 mm | - | - | - |
| 1777578636 | 20° C | 56% | 1012 hPa | 0 mm | - | - | - |
| 1777578035 | 20° C | 56% | 1012 hPa | 0 mm | - | - | - |
| 1777577435 | 21.11° C | 52% | 1013 hPa | 0 mm | - | - | - |
| 1777576834 | 21.11° C | 53% | 1013 hPa | 0 mm | - | - | - |
| 1777576233 | 21.11° C | 53% | 1013 hPa | 0 mm | - | - | - |
| 1777575632 | 21.11° C | 53% | 1013 hPa | 0 mm | - | - | - |
| 1777575031 | 21.11° C | 53% | 1013 hPa | 0 mm | - | - | - |
| 1777574430 | 21.11° C | 52% | 1013 hPa | 0 mm | - | - | - |
| 1777573829 | 21.11° C | 51% | 1013 hPa | 0 mm | - | - | - |
| 1777573228 | 21.11° C | 50% | 1013 hPa | 0 mm | - | - | - |
| 1777572628 | 21.11° C | 48% | 1013 hPa | 0 mm | - | - | - |
| 1777572027 | 21.67° C | 46% | 1013 hPa | 0 mm | - | - | - |
| 1777571426 | 21.67° C | 44% | 1013 hPa | 0 mm | - | - | - |
| 1777570825 | 21.11° C | 41% | 1013 hPa | 0 mm | - | - | - |
| 1777570224 | 20.56° C | 42% | 1014 hPa | 0 mm | - | - | - |
| 1777569623 | 21.11° C | 44% | 1014 hPa | 0 mm | - | - | - |
| 1777569022 | 21.67° C | 42% | 1014 hPa | 0 mm | - | - | - |
| 1777568421 | 21.67° C | 42% | 1014 hPa | 0 mm | - | - | - |
| 1777567820 | 21.67° C | 44% | 1014 hPa | 0 mm | - | - | - |
| 1777567219 | 21.11° C | 47% | 1014 hPa | 0 mm | - | - | - |
| 1777566618 | 20.56° C | 51% | 1015 hPa | 0 mm | - | - | - |
| 1777566017 | 20.56° C | 51% | 1015 hPa | 0 mm | - | - | - |
* Rain latest hour (hover to see other rain measurements)
** Current wind speed in m/s (hover to see current wind gust speed)